Location: Caracas
(10.4880°N, 66.8792°W)
Time: 14:37:09
(UTC+00:00)

YAOGAN 1 - Pass Details

Date: 03 August 2024
Orbit: 610 x 612 km, 97.8° (Epoch: 14 September)

Event Time Altitude Azimuth Distance (km) Brightness Sun altitude
Rises 23:23:59 0° 165° (SSE) 2,868 5.6 -8.7°
Reaches altitude 10° 23:26:10 10° 164° (SSE) 1,964 4.8 -9.2°
Maximum altitude 23:30:26 76° 78° (ENE) 633 2.5 -10.2°
Drops below altitude 10° 23:34:42 10° 353° (N) 1,965 5.5 -11.2°
Sets 23:36:53 0° 351° (N) 2,870 6.4 -11.7°
